STARLINK-34091, 63808

Orbit data source: Space-Track

STARLINK-34091, 63808 is a payload satellite owned by SpaceX/Seattle (US) in LEO that was launched on Sun, 04 May 2025 UTC via an FALCON 9 launch vehicle from the Air Force Eastern Test Range (AFETR). Payload-class satellites include a variety of spacecraft equipped with specific instruments for various scientific and technological missions. These include communications satellites like Starlink; space stations such as the ISS; scientific satellites like the Hubble; Earth observation satellites from companies like Planet Labs, Umbra, and HawkEye 360; GPS; miniature CubeSats for education and research; and military/defense satellites.

Loading next visibility...
Identifier
63808, 2025-092E
Orbit
LEO
Country
Flag of USUS
Related business
Manufacturer
SpaceX/Seattle
Mission
Operational Commercial Communications
Bus & Motor
STARLINK V2MO, Unknown motor
Mass
575 kg wet, ~530 kg dry
Launch date (UTC)
2025-05-04 (1 year ago)
Launch vehicle
FALCON 9
Launch site
Air Force Eastern Test Range (AFETR)
Object type
Payload
Rocket body
Debris
Shape & HBR
Box + 2 Pan, 17.7 m
Radar Cross Section
36.964 m², Large (>1 m²)

Expand to show TLE details & history
Last TLE update: 8 hours ago

TLE from 8 hours ago
0 STARLINK-34091
1 63808U 25092E   26178.54118258  .00017726  00000-0  65169-3 0  9994
2 63808  42.9988 272.2820 0001116 262.3643  97.7082 15.27601951 65466
Epoch: 2026-06-27T12:59Z
TLE epoch observation values (Epoch: 2026-06-27T12:59:18.174Z)
Latitude
-0.00003°
Longitude
161.80238°
Altitude
482.861 km
Speed
7.626 km/s
True Right ascension
18h 09m 07s
True Declination
0° 00' 00"
Sunlit
Object was in full shadow at epoch
Visualization orbit readout
Latitude
Unknown
Longitude
Unknown
Altitude
Unknown
Speed
Unknown
Apparent Right ascension
Unknown
Apparent Declination
Unknown
Sunlit
N/A
Visualization observer readout
Local Sidereal Time
08:19:06
Azimuth
Unknown
Elevation
Unknown
Doppler factor
Unknown
Orbital elements
Apogee altitude
485.695 km
Perigee altitude
484.163 km
Semi-major axis
6,863.066 km
Eccentricity
0.00011
Inclination
42.9988°
RAAN
272.282°
Arg. of periapsis
262.3643°
True anomaly
97.72087°
Mean anomaly
97.7082°
Eccentric anomaly
97.71454°
Mean motion
3.81738 °/min
Orbital period
94.31 mins
BSTAR
0.00065169
Loading maneuver chart data...
Computing Atmospheric mass density...
Loading historical data...
Loading historical data...
Loading historical data...
Loading historical data...
Loading historical data...
Loading historical data...
Loading historical data...

Documentation

Showing up to 5 results
|